Вернуться в каталог

FENGYUN 1C DEB

АктивенSSO
NORAD 29776·DEBRIS·🇨🇳 China

Запущен May 10, 1999 с Taiyuan Satellite Launch Center

Loading…

Ближайшие Пролёты (ближайшие 24 часа)

TLE

СвежийSource: Space-Track

Эпоха: Sep 14, 2026, 12:32 UTC

1 29776U 99025BS  26257.52253008  .00000255  00000-0  17472-3 0  9999
2 29776  98.7480 281.0247 0023196 210.8792 305.4194 14.07909279  9602

Отслеживайте FENGYUN 1C DEB в реальном времени с AllMySat

Download on the App Store